sat.trackr.live / text

‹ back to catalog

STARLINK-32829

NORAD 63049 · 2025-034W

PAYLOAD ACTIVE UNKNOWN

§ Identity

Operator
Country
US
Launch date
2025-02-18
Launch site
AFETR
Launch vehicle
Mass (kg)
RCS (m²)

Purposes: comms

External: N2YO · Heavens-Above · Gunter

§ Orbital elements

Epoch: 2026-05-24T15:41:00.630528Z

Period
93.85 min
Inclination
53.1595°
Eccentricity
0.0001221
Mean motion
15.34378215 rev/d
Perigee alt
461.9 km
Apogee alt
463.6 km
Semi-major
6,840.9 km
B*
1.3845e-4
RAAN
277.6071°
Arg perigee
89.7414°
Mean anomaly
270.3729°
Rev number
7,054

§ Raw data

STARLINK-328291 63049U 25034W   26144.65347952  .00004301  00000+0  13845-3 0  99952 63049  53.1595 277.6071 0001221  89.7414 270.3729 15.34378215 70546

JSON: /api/v1/satellites/63049 · /tle

For live sub-satellite position, see the globe view (requires WebGL).

§ Visibility from observer

Set your observer location to see the next 7 days of passes ≥ 10°. The values pass through the URL so the page stays shareable.

No JS? Fill the form by hand. The geolocation button needs JavaScript.